This is the latest recevied weather packets stored in our database for station/object N9DMT-13. If no packets are shown the sender has not sent any weather packets the latest 10 day(s).
| Time | Temp. | Humidity | Pressure | Rain* | Wind** | Luminosity | Snow |
|---|---|---|---|---|---|---|---|
| 1777836018 | 22.22° C | 39% | 973.3 hPa | 0 mm | - | - | - |
| 1777835718 | 22.22° C | 37% | 973.4 hPa | 0 mm | - | - | - |
| 1777835417 | 22.22° C | 39% | 973.4 hPa | 0 mm | - | - | - |
| 1777835116 | 21.67° C | 38% | 973.4 hPa | 0 mm | - | - | - |
| 1777834816 | 21.11° C | 42% | 973.5 hPa | 0 mm | - | - | - |
| 1777834515 | 21.67° C | 39% | 973.6 hPa | 0 mm | - | - | - |
| 1777834214 | 20.56° C | 40% | 973.8 hPa | 0 mm | - | - | - |
| 1777833913 | 21.11° C | 39% | 973.8 hPa | 0 mm | - | - | - |
| 1777833613 | 21.11° C | 41% | 973.6 hPa | 0 mm | - | - | - |
| 1777833312 | 21.11° C | 42% | 973.7 hPa | 0 mm | - | - | - |
| 1777833011 | 20.56° C | 41% | 973.7 hPa | 0 mm | - | - | - |
| 1777832710 | 20.56° C | 38% | 973.9 hPa | 0 mm | - | - | - |
| 1777832410 | 21.11° C | 38% | 973.8 hPa | 0 mm | - | - | - |
| 1777832109 | 20.56° C | 43% | 973.9 hPa | 0 mm | - | - | - |
| 1777831808 | 20° C | 42% | 973.9 hPa | 0 mm | - | - | - |
| 1777831508 | 20.56° C | 38% | 974 hPa | 0 mm | - | - | - |
| 1777831207 | 20° C | 43% | 974.1 hPa | 0 mm | - | - | - |
| 1777830906 | 19.44° C | 46% | 974.3 hPa | 0 mm | - | - | - |
| 1777830606 | 19.44° C | 41% | 974.1 hPa | 0 mm | - | - | - |
| 1777830305 | 20° C | 39% | 974.1 hPa | 0 mm | - | - | - |
| 1777830004 | 19.44° C | 43% | 974.1 hPa | 0 mm | - | - | - |
| 1777829703 | 18.89° C | 44% | 974.3 hPa | 0 mm | - | - | - |
| 1777829403 | 18.89° C | 42% | 974.4 hPa | 0 mm | - | - | - |
| 1777829102 | 18.89° C | 43% | 974.6 hPa | 0 mm | - | - | - |
| 1777828801 | 18.89° C | 43% | 974.5 hPa | 0 mm | - | - | - |
* Rain latest hour (hover to see other rain measurements)
** Current wind speed in m/s (hover to see current wind gust speed)